Regional Weather Roundup
Issued by NWS

Home | Current Version | Previous Version | Text Only | Print | Product List | Glossary On
Versions: 1 2 3 4 5 6 7 8 9 10 11 12 13 14 15 16 17 18 19 20 21 22 23 24 25 26 27 28 29 30 31 32 33 34 35 36 37 38 39 40 41 42 43 44 45 46 47 48 49 50
000
ASUS43 KDTX 160910
RWRMI
MICHIGAN HOURLY REGIONAL WEATHER ROUNDUP
NATIONAL WEATHER SERVICE DETROIT/PONTIAC MI
500 AM EDT TUE SEP 16 2014

NOTE: "FAIR" INDICATES FEW OR NO CLOUDS BELOW 12,000 FEET WITH NO
SIGNIFICANT WEATHER AND/OR OBSTRUCTION TO VISIBILITY.

MIZ047>049-052>055-059>063-066>070-074>076-081>083-161000-
SOUTHEAST LOWER MICHIGAN

CITY           SKY/WX    TMP DP  RH WIND       PRES   REMARKS
ADRIAN         PTCLDY    51  50  96 CALM      30.13F
ALMA             N/A     41  40  98 CALM      30.15R VSB 1/2
ANN ARBOR      PTCLDY    51  47  86 N5        30.12F
BAD AXE        FOG       40  40 100 CALM      30.12R VSB 1/4
DETROIT CITY   PTCLDY    54  49  83 NW3       30.13R
DETROIT        CLOUDY    52  49  89 NW6       30.12S
FLINT          MOCLDY    51  48  89 CALM      30.14S
GROSSE ILE     CLOUDY    55  52  88 NW3       30.11S
HILLSDALE      PTCLDY    48  48 100 CALM      30.14R FOG
HOWELL         CLOUDY    51  50  97 NW5       30.13S

CITY           SKY/WX    TMP DP  RH WIND       PRES   REMARKS
JACKSON        CLOUDY    52  51  97 NW5       30.14S
LAMBERTVILLE   CLOUDY    54  50  87 NW3       30.13S
LANSING        PTCLDY    49  47  93 NW6       30.16R
LAPEER         NOT AVBL
MASON          CLOUDY    49  48  97 CALM      30.15R
MONROE         CLOUDY    52  52 100 CALM      30.10F FOG
MT. CLEMENS    CLEAR     50  48  92 NW3       30.10S
PONTIAC        PTCLDY    50  47  89 NW7       30.11S
PORT HOPE        N/A     51  46  83 VRB3      30.09S
PORT HURON     CLOUDY    48  48 100 NW6       30.11S FOG
TRI CITIES     CLOUDY    44  42  93 W6        30.15R FOG
YPSILANTI      PTCLDY    54  48  80 NW6       30.13S
$$
MIZ043>046-050>051-056>058-064>065-071>073-077>080-161000-
SOUTHWEST LOWER MICHIGAN

CITY           SKY/WX    TMP DP  RH WIND       PRES   REMARKS
BATTLE CREEK   MOCLDY    50  47  89 NW7       30.17R
BENTON HARBOR  PTCLDY    48  47  96 NE3       30.16F
BIG RAPIDS     FOG       39  39 100 CALM      30.15R VSB 1/2
COLDWATER      CLOUDY    53  52  95 NW5       30.15R
HOLLAND        FOG       44  42  93 CALM      30.17S VSB 3/4
GRAND RAPIDS   FOG       48  48 100 CALM      30.17S VSB 1/4
KALAMAZOO      CLEAR     48  46  93 CALM      30.17S FOG
MARSHALL       CLOUDY    51  49  95 NW3       30.15R
MUSKEGON       CLEAR     42  40  92 CALM      30.17R
$$
MIZ016>042-161000-
NORTHERN LOWER MICHIGAN

CITY           SKY/WX    TMP DP  RH WIND       PRES   REMARKS
ALPENA         PTCLDY    40  39  97 CALM      30.11S
BEAVER ISLAND  PTCLDY    51  42  71 W6        30.12S
BELLAIRE       CLOUDY    46  45  95 CALM      30.13S
CADILLAC       FOG       36  35  99 CALM      30.13R VSB 1/4
CHARLEVOIX     MOCLDY    53  44  72 W9        30.15S
FRANKFORT      PTSUNNY   43  40  89 CALM      30.13S
GAYLORD        PTCLDY    41  39  93 CALM      30.12S
GRAYLING       FOG       44  44 100 CALM      30.13S VSB 3/4
HARBOR SPRINGS MOCLDY    47  44  89 CALM      30.12R
HOUGHTON LAKE  CLOUDY    41  40  96 E5        30.13S
MANISTEE       CLEAR     39  37  93 E5        30.14S VSB 1
OSCODA         CLEAR     41  41 100 CALM      30.11S
PELLSTON       CLEAR     40  40 100 CALM      30.11S FOG
TRAVERSE CITY  MOCLDY    49  47  93 CALM      30.12R
$$
MIZ007>008-015-161000-
EASTERN UPPER MICHIGAN

CITY           SKY/WX    TMP DP  RH WIND       PRES   REMARKS
KINROSS        CLEAR     41  41 100 SW6       30.08F
MACKINAC ISLAN CLEAR     49  43  79 W8        30.10S
NEWBERRY       CLEAR     40  39  97 W8        30.08F
S. S. MARIE    CLEAR     45  42  89 SW5       30.07F
$$
MIZ004>006-011>014-085-161000-
CENTRAL UPPER MICHIGAN

CITY           SKY/WX    TMP DP  RH WIND       PRES   REMARKS
MANISTIQUE     PTCLDY    39  39  98 W3        30.11S
ESCANABA       CLEAR     39  37  93 W7        30.12F
MENOMINEE      CLEAR     41  37  87 CALM      30.14F
SAWYER-GWINN   PTCLDY    38  35  89 SW3       30.10F
$$
MIZ001>003-009>011-084-161000-
WESTERN UPPER MICHIGAN

CITY           SKY/WX    TMP DP  RH WIND       PRES   REMARKS
IRON MOUNTAIN  CLEAR     37  34  89 CALM      30.12F
HOUGHTON       CLEAR     46  39  76 W12       30.07S
COPPER HARBOR    N/A     52  37  56 NW8       30.05S
IRONWOOD       CLEAR     39  36  87 W5        30.11S
$$

ABBREVIATIONS USED IN REMARKS
   TC - TEMPERATURE IN CELSIUS
  WCI - WIND CHILL INDEX
   HX - HEAT INDEX
  VSB - VISIBILITY




USA.gov is the U.S. government's official web portal to all federal, state and local government web resources and services.